Voltar ao catálogo

STARLINK-2519

AtivoComunicaçõesVLEO
NORAD 48305·PAYLOAD·🇺🇸 United States

Lançado Apr 29, 2021 de Cape Canaveral Space Force Station

Loading…

Próximas Passagens (próximas 24 horas)

TLE

AtualizadoSource: CelesTrak SupGP

Época: Sep 14, 2026, 21:02 UTC

1 48305C 21036AF  26257.87687500  .00004698  00000+0  15105-3 0  2573
2 48305  53.1582 299.0559 0001315  82.8882 138.7006 15.31701172    15

Acompanhe STARLINK-2519 em tempo real com AllMySat

Download on the App Store